This is the latest recevied weather packets stored in our database for station/object SALT. If no packets are shown the sender has not sent any weather packets the latest 1 day(s).
| Time | Temp. | Humidity | Pressure | Rain* | Wind** | Luminosity | Snow |
|---|---|---|---|---|---|---|---|
| 1778046396 | 7.78° C | 59% | 1018.4 hPa | 0 mm | 2.24 m/s, 330° | - | - |
| 1778045791 | 8.33° C | 58% | 1018.2 hPa | 0 mm | 3.13 m/s, 326° | - | - |
| 1778045189 | 8.33° C | 58% | 1018.1 hPa | 0 mm | 3.13 m/s, 327° | - | - |
| 1778044586 | 8.89° C | 59% | 1017.9 hPa | 0 mm | 4.92 m/s, 315° | - | - |
| 1778043983 | 8.33° C | 61% | 1018 hPa | 0 mm | 4.47 m/s, 316° | - | - |
| 1778043381 | 8.33° C | 63% | 1017.9 hPa | 0 mm | 4.47 m/s, 308° | - | - |
| 1778042778 | 8.33° C | 64% | 1017.9 hPa | 0 mm | 3.13 m/s, 318° | - | - |
| 1778042173 | 8.33° C | 64% | 1017.8 hPa | 0 mm | 4.02 m/s, 333° | - | - |
| 1778041571 | 8.89° C | 64% | 1017.8 hPa | 0 mm | 4.02 m/s, 4° | - | - |
| 1778040967 | 8.89° C | 63% | 1017.6 hPa | 0 mm | 4.02 m/s, 316° | - | - |
| 1778040365 | 8.89° C | 63% | 1017.4 hPa | 0 mm | 4.47 m/s, 339° | - | - |
| 1778039762 | 8.89° C | 63% | 1017.1 hPa | 0 mm | 4.02 m/s, 303° | - | - |
| 1778039160 | 9.44° C | 62% | 1017 hPa | 0 mm | 4.47 m/s, 334° | - | - |
| 1778038555 | 9.44° C | 62% | 1017.1 hPa | 0 mm | 3.58 m/s, 321° | - | - |
| 1778037952 | 9.44° C | 62% | 1017 hPa | 0 mm | 3.58 m/s, 322° | - | - |
| 1778037349 | 10° C | 61% | 1016.9 hPa | 0 mm | 3.58 m/s, 322° | - | - |
| 1778036747 | 10° C | 62% | 1016.7 hPa | 0 mm | 3.13 m/s, 316° | - | - |
| 1778036144 | 10.56° C | 60% | 1016.7 hPa | 0 mm | 3.13 m/s, 341° | - | - |
| 1778035542 | 10.56° C | 57% | 1016.6 hPa | 0 mm | 3.58 m/s, 314° | - | - |
| 1778034937 | 11.11° C | 58% | 1016.3 hPa | 0 mm | 4.02 m/s, 343° | - | - |
| 1778034334 | 11.11° C | 57% | 1016.3 hPa | 0 mm | 3.13 m/s, 345° | - | - |
| 1778033731 | 11.67° C | 58% | 1016.1 hPa | 0 mm | 4.47 m/s, 320° | - | - |
| 1778033130 | 11.67° C | 57% | 1016.1 hPa | 0 mm | 4.02 m/s, 343° | - | - |
| 1778031924 | 11.67° C | 56% | 1016.1 hPa | 0 mm | 5.36 m/s, 330° | - | - |
| 1778031319 | 11.67° C | 56% | 1016.1 hPa | 0 mm | 4.02 m/s, 328° | - | - |
* Rain latest 24 hours (hover to see other rain measurements)
** Current wind speed in m/s (hover to see current wind gust speed)